Location: Huntsville
(41.2590°N, 111.7678°W)
Time: 20:33:19
(UTC+00:00)

Vanguard 3 - Pass Details

Date: 13 June 2021
Orbit: 508 x 3261 km, 33.4° (Epoch: 28 July)

Event Time Altitude Azimuth Distance (km) Brightness Sun altitude
Rises 22:43:45 0° 268° (W) 4,715 11.8 45.4°
Reaches altitude 10° 22:47:19 10° 255° (WSW) 4,130 11.8 44.8°
Maximum altitude 22:55:51 24° 208° (SSW) 3,954 11.3 43.2°
Drops below altitude 10° 23:07:37 10° 164° (SSE) 5,795 11.5 41.0°
Sets 23:14:07 0° 153° (SSE) 7,084 11.7 39.8°
